[[{"header":{"parameterUnit":"m.s-1","parameterCategory":1,"la1":30.2991,"la2":30.254,"lo1":-89.0895,"lo2":-89.0444,"dy":0.0017,"dx":0.0017,"nx":28,"ny":28,"refTime":"2024-05-05T03:00:00:Z","depth":0,"parameterNumber":2,"parameterNumberName":"U-component_of_WINDS"},"data":[0,0,0,0,0,0,0,0,0,0,0,0,0,0,0,0,0,0,0,0,0,0,0,0,0,0,0,0,0,0,0,0,0,0,0,0,0,0,0,0,0,0,0,0,0,0,0,0,0,0,0,0,0,0,0,0,0,0,-1.3311,-1.3312,0,-1.3358,-1.3359,-1.336,-1.3369,-1.3368,-1.3368,-1.3368,-1.3417,-1.3419,-1.342,0,0,0,0,0,0,0,0,0,0,0,0,0,-1.3231,-1.3232,-1.3311,-1.3312,-1.3312,-1.3358,-1.3359,-1.336,-1.3369,-1.3368,-1.3368,-1.3367,-1.3417,-1.3419,-1.3421,0,0,0,0,0,0,0,0,0,0,0,0,0,-1.3271,-1.3233,-1.3311,-1.3322,-1.3324,-1.3358,-1.3359,-1.336,-1.3369,-1.3368,-1.3368,-1.3367,-1.3416,-1.3418,-1.3421,-1.3448,0,0,-1.3429,-1.343,0,0,0,0,0,0,0,0,-1.3268,-1.3274,-1.332,-1.3322,-1.3323,-1.3357,-1.3349,-1.3389,-1.3369,-1.3352,-1.3368,-1.3367,-1.3398,-1.3402,-1.3412,-1.345,-1.3452,-1.3429,-1.343,-1.3431,-1.3432,0,0,0,0,0,0,0,-1.3266,-1.3272,-1.333,-1.3321,-1.3323,-1.3326,-1.3331,-1.3357,-1.3377,-1.3353,-1.3354,-1.3359,-1.3399,-1.3409,-1.3413,-1.3453,-1.3429,-1.3431,-1.3433,-1.3433,-1.3517,-1.3517,0,0,0,0,0,0,-1.3261,-1.3269,-1.3328,-1.3331,-1.3294,-1.3328,-1.3333,-1.3347,-1.3377,-1.3381,-1.336,-1.336,-1.3405,-1.341,-1.3415,-1.3449,-1.3431,-1.3434,-1.3435,-1.3516,-1.3517,-1.3518,0,0,0,0,0,0,-1.3259,-1.3266,-1.3327,-1.3301,-1.3309,-1.333,-1.3345,-1.3348,-1.3359,-1.3382,-1.3386,-1.3367,-1.3405,-1.3411,-1.344,-1.345,-1.3435,-1.3437,-1.3515,-1.3516,-1.3517,-1.3516,0,0,0,0,0,0,-1.3257,-1.3265,-1.3275,-1.3301,-1.331,-1.335,-1.3345,-1.3349,-1.3363,-1.3363,-1.339,-1.3394,-1.3405,-1.3436,-1.3442,-1.3454,-1.3439,-1.3514,-1.3516,-1.3517,-1.3515,-1.3517,-1.3518,0,0,0,0,0,-1.3254,-1.3273,-1.3275,-1.3282,-1.3322,-1.335,-1.3356,-1.3368,-1.3364,-1.3374,-1.3389,-1.3393,-1.3448,-1.3439,-1.3446,-1.3458,-1.3514,-1.3515,-1.3517,-1.3514,-1.3516,-1.3518,0,0,0,0,0,0,-1.3248,-1.3276,-1.3279,-1.3307,-1.3326,-1.3352,-1.3365,-1.337,-1.3391,-1.339,-1.3405,-1.3411,-1.3438,-1.3451,-1.344,-1.3486,-1.3481,-1.3484,-1.3476,-1.3479,-1.348,-1.3476,-1.3441,0,0,0,0,0,-1.325,-1.3269,-1.3294,-1.3316,-1.3325,-1.3344,-1.3356,-1.3364,-1.3385,-1.3393,-1.341,-1.343,-1.3452,-1.3466,-1.3488,-1.3517,-1.3524,-1.353,-1.3531,-1.3532,-1.3535,-1.3552,-1.3555,-1.3523,-1.3523,-1.3523,0,0,-1.3254,-1.3272,-1.3284,-1.3315,-1.3331,-1.3351,-1.335,-1.3372,-1.3388,-1.3396,-1.3424,-1.3437,-1.3461,-1.349,-1.3504,-1.3502,-1.3545,-1.3534,-1.3535,-1.3537,-1.3554,-1.3557,-1.3559,-1.3524,-1.3524,-1.3523,0,0,-1.3272,-1.3288,-1.3308,-1.3324,-1.3348,-1.336,-1.3365,-1.339,-1.3399,-1.3427,-1.3434,-1.3454,-1.3491,-1.3508,-1.3521,-1.3547,-1.3551,-1.3554,-1.3562,-1.3578,-1.3581,-1.3583,-1.3592,-1.3596,-1.3556,-1.3556,-1.3556,0,-1.3274,-1.3305,-1.3318,-1.334,-1.3354,-1.3363,-1.3384,-1.3399,-1.3429,-1.3438,-1.3436,-1.3484,-1.35,-1.3533,-1.354,-1.3551,-1.3557,-1.355,-1.3579,-1.3582,-1.3584,-1.3593,-1.3597,-1.3556,-1.3556,-1.3556,-1.3556,0,-1.3307,-1.3328,-1.3342,-1.337,-1.3386,-1.3407,-1.3424,-1.3439,-1.3446,-1.3459,-1.3488,-1.3508,-1.3534,-1.3543,-1.355,-1.3578,-1.3576,-1.3576,-1.3571,-1.3587,-1.3596,-1.3599,-1.3557,-1.3557,-1.3557,-1.3557,0,0,-1.3321,-1.3357,-1.3362,-1.3375,-1.3402,-1.3419,-1.3442,-1.3467,-1.3479,-1.35,-1.352,-1.3552,-1.3553,-1.3568,-1.3577,-1.3592,-1.3611,-1.3591,-1.3591,-1.3593,-1.3643,-1.3642,-1.3646,-1.3615,-1.3616,-1.3616,-1.3641,0,-1.3342,-1.3381,-1.3394,-1.3427,-1.3447,-1.3457,-1.3476,-1.3496,-1.3509,-1.3529,-1.3544,-1.3566,-1.3565,-1.3575,-1.359,-1.3606,-1.3622,-1.3604,-1.3633,-1.3634,-1.3626,-1.3651,-1.365,-1.3672,-1.3645,-1.3645,-1.3646,0,-1.3371,-1.3392,-1.3427,-1.3452,-1.3461,-1.3479,-1.3503,-1.3522,-1.3545,-1.3553,-1.3571,-1.358,-1.3604,-1.3598,-1.3633,-1.3621,-1.3634,-1.3644,-1.3645,-1.3648,-1.364,-1.3653,-1.368,-1.3683,-1.3651,-1.3651,-1.365,0,-1.3378,-1.3415,-1.344,-1.3452,-1.3482,-1.3494,-1.3507,-1.353,-1.3544,-1.3566,-1.3576,-1.3601,-1.3615,-1.3634,-1.365,-1.3644,-1.3683,-1.3678,-1.3691,-1.3691,-1.3698,-1.3697,-1.3726,-1.3707,-1.3707,-1.3707,-1.3707,0,-1.34,-1.342,-1.3444,-1.3459,-1.3484,-1.3499,-1.3523,-1.3537,-1.3557,-1.3576,-1.3586,-1.3604,-1.3624,-1.3645,-1.3658,-1.3684,-1.3691,-1.3699,-1.3702,-1.3697,-1.3696,-1.3705,-1.3704,-1.3708,-1.3708,-1.3708,-1.3708,0,-1.3411,-1.3427,-1.3456,-1.3482,-1.349,-1.3506,-1.353,-1.3546,-1.356,-1.3584,-1.3591,-1.3613,-1.3638,-1.3656,-1.3688,-1.3697,-1.3726,-1.3729,-1.3718,-1.3719,-1.3731,-1.3729,-1.3766,-1.3772,-1.375,-1.375,-1.375,0,-1.3423,-1.3439,-1.3468,-1.3481,-1.3494,-1.3516,-1.3531,-1.3547,-1.3563,-1.3591,-1.3604,-1.363,-1.3651,-1.3691,-1.3711,-1.3736,-1.3739,-1.3751,-1.3743,-1.3739,-1.3739,-1.3738,-1.374,-1.3751,-1.3752,-1.3752,-1.3752,0,-1.3443,-1.3451,-1.3471,-1.3496,-1.3513,-1.3533,-1.3553,-1.3564,-1.3584,-1.3601,-1.3627,-1.3644,-1.3677,-1.3703,-1.373,-1.3745,-1.3752,-1.3754,-1.3758,-1.3754,-1.3747,-1.375,-1.372,-1.3753,-1.3753,-1.3753,-1.3753,-1.3753,-1.3455,-1.347,-1.3492,-1.3516,-1.3533,-1.3551,-1.3568,-1.3584,-1.3606,-1.3633,-1.3643,-1.3669,-1.3693,-1.373,-1.3746,-1.3768,-1.3767,-1.3773,-1.3775,-1.3776,-1.3775,-1.3744,-1.3773,-1.3773,-1.3773,-1.3773,-1.3773,0,-1.3475,-1.349,-1.3512,-1.3539,-1.3558,-1.3563,-1.3586,-1.3601,-1.3624,-1.3646,-1.3667,-1.3697,-1.3722,-1.3744,-1.3771,-1.3784,-1.3788,-1.379,-1.3789,-1.3793,-1.3775,-1.3768,-1.3787,-1.3787,-1.3787,-1.3787,-1.3787,-1.3787,-1.3488,-1.3514,-1.3524,-1.3559,-1.3574,-1.36,-1.3613,-1.363,-1.3647,-1.368,-1.3701,-1.3715,-1.3737,-1.3766,-1.3789,-1.3795,-1.3805,-1.3806,-1.3813,-1.3795,-1.3794,-1.3792,-1.3786,-1.3808,-1.3808,-1.3829,-1.3829,-1.3829]},{"header":{"parameterUnit":"m.s-1","parameterCategory":1,"la1":30.2991,"la2":30.254,"lo1":-89.0895,"lo2":-89.0444,"dy":0.0017,"dx":0.0017,"nx":28,"ny":28,"refTime":"2024-05-05T03:00:00:Z","depth":0,"parameterNumber":3,"parameterNumberName":"V-component_of_WINDS"},"data":[0,0,0,0,0,0,0,0,0,0,0,0,0,0,0,0,0,0,0,0,0,0,0,0,0,0,0,0,0,0,0,0,0,0,0,0,0,0,0,0,0,0,0,0,0,0,0,0,0,0,0,0,0,0,0,0,0,0,3.0143,3.0143,0,3.0154,3.0155,3.0155,3.0114,3.0113,3.0111,3.011,3.0121,3.0122,3.0123,0,0,0,0,0,0,0,0,0,0,0,0,0,3.0086,3.0087,3.0143,3.0143,3.0143,3.0154,3.0155,3.0155,3.0114,3.0113,3.0111,3.011,3.012,3.0122,3.0124,0,0,0,0,0,0,0,0,0,0,0,0,0,3.0105,3.0088,3.0143,3.0125,3.0123,3.0154,3.0155,3.0155,3.0114,3.0113,3.0111,3.0109,3.012,3.0122,3.0124,3.0173,0,0,3.013,3.0131,0,0,0,0,0,0,0,0,3.0104,3.0108,3.0127,3.0126,3.0124,3.0131,3.0138,3.0161,3.0115,3.0118,3.011,3.0108,3.0126,3.0127,3.0133,3.0174,3.0174,3.013,3.0132,3.0133,3.0133,0,0,0,0,0,0,0,3.0103,3.0107,3.0148,3.0127,3.0126,3.0116,3.0116,3.0142,3.0132,3.0117,3.0114,3.0116,3.0124,3.0131,3.0133,3.0174,3.013,3.0132,3.0134,3.0134,3.0257,3.0259,0,0,0,0,0,0,3.0104,3.0106,3.0147,3.0148,3.011,3.0118,3.0119,3.0131,3.0131,3.013,3.0118,3.0114,3.0128,3.0131,3.0133,3.0192,3.0133,3.0135,3.0136,3.0255,3.0258,3.026,0,0,0,0,0,0,3.0103,3.0108,3.0147,3.0126,3.013,3.0121,3.0134,3.0132,3.0138,3.0132,3.0129,3.0127,3.0127,3.013,3.0164,3.0191,3.0136,3.0137,3.0253,3.0256,3.0259,3.0308,0,0,0,0,0,0,3.0102,3.0108,3.0127,3.0127,3.0132,3.0177,3.0136,3.0133,3.0142,3.0138,3.0139,3.0138,3.0126,3.0161,3.0166,3.0193,3.0139,3.025,3.0254,3.0258,3.0304,3.0313,3.032,0,0,0,0,0,3.01,3.014,3.0128,3.0133,3.0155,3.0179,3.0182,3.0167,3.0145,3.0163,3.0159,3.0138,3.0188,3.0165,3.017,3.0198,3.0248,3.0253,3.0257,3.0301,3.0311,3.032,0,0,0,0,0,0,3.0143,3.014,3.0126,3.0168,3.0174,3.0172,3.0195,3.0179,3.0191,3.0186,3.0168,3.0168,3.0205,3.0205,3.018,3.0247,3.0214,3.022,3.0245,3.0255,3.0263,3.0262,3.0141,0,0,0,0,0,3.0157,3.0177,3.0173,3.021,3.0214,3.0205,3.0214,3.0203,3.0209,3.0211,3.0209,3.0215,3.0232,3.0244,3.0259,3.0304,3.0304,3.0327,3.0335,3.0341,3.0346,3.0371,3.0381,3.0274,3.0274,3.0274,0,0,3.0186,3.0187,3.0201,3.0219,3.0222,3.0244,3.0207,3.0231,3.0246,3.0214,3.0246,3.0245,3.0251,3.0291,3.0308,3.0292,3.0376,3.0347,3.0352,3.0353,3.0376,3.0386,3.0395,3.0278,3.0277,3.0276,0,0,3.0251,3.0254,3.0285,3.029,3.0296,3.029,3.0298,3.0299,3.0297,3.0329,3.0306,3.0324,3.0354,3.0359,3.0365,3.0434,3.0415,3.0439,3.048,3.0504,3.0513,3.052,3.0545,3.0554,3.0445,3.0445,3.0445,0,3.0287,3.0318,3.0303,3.0329,3.0338,3.0311,3.0343,3.0348,3.0359,3.0366,3.0347,3.0385,3.0386,3.0427,3.0444,3.0451,3.0459,3.0439,3.0513,3.052,3.0527,3.055,3.0559,3.0448,3.0447,3.0447,3.0447,0,3.0362,3.0385,3.0409,3.0421,3.0433,3.0461,3.0451,3.0464,3.0453,3.0448,3.0481,3.0483,3.0498,3.0507,3.0495,3.0547,3.0537,3.0516,3.0483,3.054,3.0562,3.057,3.0452,3.0451,3.045,3.0449,0,0,3.0453,3.0457,3.0467,3.0472,3.0478,3.0495,3.0523,3.0538,3.0551,3.0559,3.0582,3.0609,3.059,3.0598,3.0586,3.0608,3.0662,3.0584,3.0584,3.0599,3.072,3.0735,3.0746,3.065,3.0652,3.0653,3.0719,0,3.0516,3.0564,3.0552,3.06,3.0621,3.0596,3.0621,3.0627,3.0624,3.0641,3.0637,3.0657,3.063,3.0635,3.0655,3.0652,3.0686,3.0647,3.0671,3.0672,3.067,3.0757,3.0773,3.0836,3.0728,3.0729,3.073,0,3.0597,3.061,3.066,3.0663,3.0671,3.0693,3.0708,3.0724,3.0731,3.0727,3.0737,3.0722,3.0749,3.0717,3.0755,3.0728,3.0737,3.0737,3.074,3.0741,3.0704,3.0761,3.0855,3.0864,3.0743,3.0742,3.0741,0,3.0658,3.0688,3.0722,3.0727,3.0732,3.0748,3.0751,3.0756,3.0767,3.0779,3.0786,3.0801,3.081,3.0822,3.0811,3.0789,3.0851,3.0818,3.0849,3.0849,3.0862,3.0862,3.096,3.0869,3.0869,3.0869,3.0869,0,3.073,3.0762,3.075,3.077,3.0805,3.0792,3.0826,3.0826,3.0831,3.0852,3.0831,3.0851,3.0836,3.0854,3.0846,3.0879,3.0883,3.0881,3.0878,3.0883,3.0883,3.0888,3.0884,3.0872,3.0871,3.087,3.087,0,3.0804,3.0797,3.0833,3.0835,3.0836,3.0862,3.0864,3.0883,3.0879,3.0905,3.0911,3.0904,3.0925,3.0916,3.0937,3.0932,3.0975,3.0966,3.0972,3.097,3.1002,3.0999,3.1106,3.112,3.1021,3.1022,3.1023,0,3.085,3.0874,3.088,3.0892,3.0897,3.0917,3.0928,3.0916,3.0928,3.0939,3.0957,3.0976,3.0991,3.1025,3.1022,3.1039,3.1031,3.1067,3.1033,3.1037,3.1031,3.103,3.1032,3.1074,3.1075,3.1076,3.1077,0,3.0934,3.0929,3.0946,3.0963,3.0977,3.0989,3.0999,3.1011,3.0999,3.1014,3.1036,3.1047,3.107,3.1089,3.1104,3.1106,3.109,3.1088,3.1096,3.11,3.1103,3.1102,3.0991,3.1085,3.1084,3.1084,3.1083,3.1083,3.0995,3.1016,3.1023,3.1043,3.105,3.106,3.1079,3.1078,3.1095,3.1113,3.1105,3.113,3.1137,3.1155,3.116,3.118,3.1165,3.1177,3.118,3.1183,3.1187,3.11,3.1182,3.1182,3.1182,3.1182,3.1181,0,3.1077,3.1081,3.11,3.1115,3.1131,3.1115,3.1126,3.114,3.1163,3.1171,3.1186,3.1211,3.123,3.123,3.1247,3.1263,3.1256,3.1268,3.1266,3.1267,3.1199,3.119,3.1273,3.1273,3.1273,3.1273,3.1273,3.1273,3.1122,3.1156,3.1153,3.119,3.1194,3.1218,3.1226,3.1236,3.1242,3.1271,3.1287,3.1287,3.1292,3.131,3.1327,3.1326,3.1333,3.1349,3.1345,3.1281,3.1272,3.1263,3.1255,3.135,3.135,3.1412,3.1412,3.1413]}]]